Погода в Волочанке

Погода в Волочанке : погода сейчас, прогноз погоды и архив. Всё, что Вы хотите узнать о погоде в Волочанке!

Поиск расширенной информации на нашем сайте:

Другие новости

Новости СМИ2

Главная страница сайта

Новости сайта

03.07.2017

Напоминаем, что на нашем специализированном сайте Метеоцентр.Азия вы можете получить высокодетализированные автоматические прогнозы погоды по пунктам России, СНГ и мира в авиационном формате (включающие направление и скорость ветра, видимость, явления погоды, количество и форму облачности, нижнюю и верхнюю границу облачности).


Погода в Волочанке - сегодня

Время (UTC), дата Ветер
(°,м/с) 
Видим.   Явления Облачность Т
(°С)
Тd
(°С)
f(%) Тe
(°С)
Pmin
(гПа)
dP
(гПа)
Po
(мм)
O2
(г/м3)
Тmin Tmax R s Состояние
почвы
06 09.12.17 090 (В) 10 км  позёмок  3/0 верхняя 
[Cs]
-27 -29.5 79 -36  1033.2  -1.4  771  346           
09 09.12.17 100 (В) 10 км  позёмок  3/0 верхняя 
[Cs]
-25.8 -28.3 79 -33  1032.7  -0.5  770  345           
12 09.12.17 100 (В) 10 км  позёмок  3/0 верхняя 
[Cs]
-24.6 -27.2 79 -32  1030.9  -1.8  769  342    -24.4       
15 09.12.17 090 (В) 10 км    ясно 
-24.4 -26.9 80 -29  1030.3  -0.6  768  342           
18 09.12.17 100 (В) 10 км    3/0 верхняя 
[Ci fib]
-25.6 -28.1 80 -29  1030  -0.3  768  343           
00 10.12.17 070 (В) 10 км    5/0 верхняя 
[Cs]
-27 -29.5 79 -30  1029.2  -0.5  768  345  -27.1      21  равномерный
сухой снег
100% 
03 10.12.17 050 (СВ) 10 км    5/0 верхняя 
[Cs]
-27.9 -30.3 80 -31  1028.6  -1.7  767  346           
06 10.12.17 080 (В) 10 км    8/0 верхняя 
[Cs]
-28.1 -30.5 80 -32  1028.5  -0.1  767  346           
09 10.12.17 070 (В) 10 км    5/0 верхняя 
[Cs]
-27.5 -30 79 -33  1027.8  -0.6  767  345           
12 10.12.17 080 (В) 10 км    8/0 верхняя 
[Cs]
-25 -27.4 80 -31  1026.9  -0.9  766  342    -24.9       
15 10.12.17 090 (В) 10 км    10/10 2000 м 
[Ac As]
-23.6 -26.2 79 -30  1025.2  -1.7  765  339           
18 10.12.17 090 (В) 10 км  позёмок  10/10 2000 м 
[Ac As]
-23 -25.6 79 -30  1023.2  -2  763  338           
21 10.12.17 090 (В) 10 км  позёмок  10/10 2000 м 
[Ns]
-21.6 -24.1 80 -28  1021.2  -1.9  762  335           
00 11.12.17 090 (В) 10 км  позёмок  10/10 2000 м 
[Ac As]
-19.9 -22.5 80 -26  1018.8  -2.3  760  332  -25      19  равномерный
сухой снег
100% 
03 11.12.17 340 (С) 10 км  слаб. снег  10/10 2000 м 
[Ns]
-18.5 -21.1 80 -21  1018.7  -0.1  760  330           
06 11.12.17 240 (ЮЗ) 4000 м  слаб. снег  10/10 600 м 
[Sc]
-18.2 -20.8 80 -21  1019.1  0.4  760  330           
09 11.12.17 250 (З) 4000 м  слаб. снег  10/10 600 м 
[Sc]
-17.9 -19.8 85 -20  1018.6  -0.5  760  329           
12 11.12.17 290 (З) 4000 м  слаб. снег  10/10 600 м 
[Sc]
-17.5 -19.4 85 -20  1018.8  0.3  760  329    -17.3     
15 11.12.17 300 (СЗ) 2000 м  снег  10/10 300 м 
[Ns]
-18 -19.9 85 -18  1018.6  -0.3  760  329           
18 11.12.17 320 (СЗ) 2000 м  снег  10/10 300 м 
[Ns]
-18.7 -21.3 80 -21  1018.7  0.1  760  330           
21 11.12.17 330 (СЗ) 2000 м  снег  10/10 300 м 
[Ns]
-19.5 -22.1 80 -22  1018.6  -0.1  758  330           
00 12.12.17 320 (СЗ) 10 км  слаб. снег  10/10 2000 м 
[Ns]
-22.1 -24.7 79 -25  1019.2  0.6  760  335  -22.1    27  равномерный
сухой снег
100% 
03 12.12.17 330 (СЗ) 10 км  {снег}  8/3 2000 м средняя, верхняя 
[As op|Cs]
-25 -27.4 80 -28  1019.9  0.6  761  339  -25         
06 12.12.17 320 (СЗ) 10 км  слаб. снег  10/10 2000 м 
[Ac As]
-27.2 -29.6 80 -31  1021.3  1.3  762  343           
09 12.12.17 300 (СЗ) 10 км  слаб. снег  9/9 2000 м средняя 
[Ac As]
-27.4 -29.8 80 -31  1022.2  0.9  762  343           
Время (UTC), дата Ветер
(°,м/с) 
Видим.   Явления Облачность Т
(°С)
Тd
(°С)
f(%) Тe
(°С)
Pmin
(гПа)
dP
(гПа)
Po
(мм)
O2
(г/м3)
Тmin Tmax R s Состояние
почвы

Для получения пояснительной информации подведите курсор к названию столбца.

ПОГОДА в Волочанке - архив

Всё, что Вы хотите узнать о погоде в Волочанке - удобно и подробно!

Выберите нужную дату (начиная с 1 января 2015* года) и нажмите кнопку "Найти".
Будут отображены архивные сводки погоды по пункту Волочанка, начиная с указанной даты.


Отображать данные в формате CSV (для использования в таблицах Excel)


Внимание! Наш архив погоды предназначен исключительно для личного некоммерческого использования в познавательных целях. Если Вам необходимы официальные справки о состоянии погоды (для производственных, юридических, коммерческих и т.п. целей), обращайтесь в органы Росгидромета.

*Примечание: данная дата относится к архиву по метеостанциям СССР (Россия, СНГ, Балтия).
Архив по метеостанциям Зарубежной Европы и Азии (кроме Китая) хранится 10 дней, по другим регионам земного шара (Китай, Африка, Америка, Австралия, Океания) - 1 день.

Волочанка - район местоположения метеостанции


Название, широта, долгота, высота метеостанции:
Волочанка 71°ш. 94.6°д. 37 м над ур. моря [Российская Федерация]

Дополнительная информация

В oтличие oт бoльшинства пoгoдных сайтoв мы публикуем пoдрoбную метеoинфoрмацию в детальнoм прoфессиoнальнoм фoрмате.

Характеристики температуры и влажнoсти вoздуха измеряются на высoте 2 м в тени вдали oт зданий и деревьев.
Скoрoсть ветра измеряется на высoте 10 м (на урoвне рoста челoвека скoрoсть ветра ниже в 1.5-2 раза). Если метеoстанция нахoдится в гoрoде или в лесу, тo скoрoсть ветра занижена на 2-4 м/с пo сравнению с oткрытым местoм. Скoрoсть ветра над акватoриями крупных рек и oзёр, а также на вершинах хoлмoв на 2-5 м/с выше, чем в oбычных услoвиях.
Атмoсфернoе давление в разных тoчках местнoсти мoжет значительнo oтличаться oт давления на метеoстанции, в зависимoсти oт услoвий рельефа (при пoдъёме на 10 м давление пoнижается примернo на 1 мм рт.ст.).